Effective Sunday, March 17, 2024, the National Weather Service National Data Buoy Center will discontinue its Dial-A-Buoy Interactive Voice Response system. For more information, see Service Change Notice 24-06 (PDF).

Station APRP7 - 1630000 - Apra Harbor, Guam Image indicating link to RSS feed of recent meteorological observations for station APRP7


Conditions at APRP7 as of
1800 GMT on 03/01/2024:
     

Click on the graph icon in the table below to see a time series plot of the last five days of that observation.

5-day plot - Wind Direction Wind Direction (WDIR):ENE ( 70 deg true )
5-day plot - Wind Speed Wind Speed (WSPD): 4.1 kts
5-day plot - Wind Gust Wind Gust (GST): 6.0 kts
5-day plot - Atmospheric Pressure Atmospheric Pressure (PRES):29.87 in
5-day plot - Pressure Tendency Pressure Tendency (PTDY):-0.04 in ( Falling )
5-day plot - Air Temperature Air Temperature (ATMP): 78.1 °F
5-day plot - Water Temperature Water Temperature (WTMP): 79.7 °F
5-day plot - Wind Speed at 10 Meters Wind Speed at 10 meters (WSPD10M): 3.9 kts
5-day plot - Wind Speed at 20 Meters Wind Speed at 20 meters (WSPD20M): 5.8 kts
5-day plot -  Wind Speed, Wind Gust and Atmospheric Pressure Combined plot of Wind Speed, Gust, and Air Pressure
NOS Water Level Observation Network Water Level
Previous observations
TIME
(GMT)
5-day plot - Wind Direction
WDIR
 
5-day plot - Wind Speed
WSPD
kts
5-day plot - Wind Gust
GST
kts
5-day plot - Wave Height
WVHT
ft
5-day plot - Dominant Wave Period
DPD
sec
5-day plot - Average Wave Period
APD
sec
5-day plot - Mean Wave Direction
MWD
 
5-day plot - Atmospheric Pressure
PRES
in
5-day plot - Pressure Tendency
PTDY
in
5-day plot - Air Temperature
ATMP
°F
5-day plot - Water Temperature
WTMP
°F
5-day plot - Dew Point
DEWP
°F
5-day plot - Salinity
SAL
psu
5-day plot - Visibility
VIS
nmi
5-day plot - Tide (above MLLW)
TIDE
ft
2024-03-01 1754 NE 4.1 6.0----29.87- 78.1 79.7----
2024-03-01 1748-------29.87- 77.9 79.7----
2024-03-01 1742 NE 4.1 6.0----29.87- 77.9 79.7----
2024-03-01 1736ENE 4.1 5.1----29.88- 77.9 79.7----
2024-03-01 1730ENE 2.9 6.0----29.88- 78.1 79.7----
2024-03-01 1724ENE 4.1 5.1----29.88- 78.3 79.7----
2024-03-01 1718ENE 2.9 6.0----29.88- 78.1 79.7----
2024-03-01 1712ENE 2.9 5.1----29.88- 78.3 79.7----
2024-03-01 1706ENE 4.1 6.0----29.88- 78.3 79.7----
2024-03-01 1700ENE 2.9 6.0----29.88-0.05 78.1 79.7----
2024-03-01 1654ENE 4.1 7.0----29.88- 78.3 79.7----
2024-03-01 1648ENE 5.1 6.0----29.88- 78.3 79.7----
2024-03-01 1642ENE 4.1 6.0----29.88- 78.4 79.7----
2024-03-01 1636ENE 2.9 5.1----29.88- 78.3 79.7----
2024-03-01 1630ENE 4.1 6.0----29.89- 78.1 79.7----
2024-03-01 1624ENE 2.9 5.1----29.89- 78.3 79.7----
2024-03-01 1618ENE 4.1 6.0----29.89- 78.3 79.7----
2024-03-01 1612ENE 2.9 5.1----29.89- 78.3 79.7----
2024-03-01 1606ENE 4.1 7.0----29.89- 78.3 79.7----
2024-03-01 1600ENE 4.1 7.0----29.89-0.04 78.1 79.7----
2024-03-01 1554ENE 4.1 8.0----29.90- 78.1 79.7----
2024-03-01 1548ENE 4.1 5.1------------
2024-03-01 1542ENE 4.1 5.1----29.90- 78.3 79.7----
2024-03-01 1536ENE 2.9 5.1----29.90- 78.4 79.7----
2024-03-01 1530 NE 2.9 5.1----29.91- 78.3 79.7----
2024-03-01 1524ENE 2.9 5.1----29.91- 78.4 79.7----
2024-03-01 1518ENE 1.9 5.1------------
2024-03-01 1512 NE 2.9 5.1----29.91- 78.4 79.7----
2024-03-01 1506ENE 2.9 4.1----29.91- 78.4 79.7----
2024-03-01 1500 NE 2.9 5.1----29.91-0.03------
2024-03-01 1454ENE 4.1 5.1----29.91- 78.4 79.7----
2024-03-01 1448 NE 2.9 5.1----29.92- 78.4 79.7----
2024-03-01 1442 NE 4.1 6.0----29.92- 78.6 79.7----
2024-03-01 1436 NE 4.1 5.1----29.92- 78.6 79.7----
2024-03-01 1430ENE 4.1 6.0----29.92- 78.4 79.7----
2024-03-01 1424ENE 4.1 6.0----29.92- 78.6 79.7----
2024-03-01 1418ENE 4.1 5.1----29.92- 78.6 79.7----
2024-03-01 1412 NE 4.1 6.0----29.92- 78.6 79.7----
2024-03-01 1406ENE 4.1 6.0----29.93- 78.4 79.7----
2024-03-01 1400ENE 2.9 6.0----29.93+0.00 78.4 79.7----
2024-03-01 1354ENE 4.1 5.1----29.93- 78.4 79.7----
2024-03-01 1348 NE 4.1 6.0----29.93- 78.4 79.7----
2024-03-01 1342ENE 4.1 6.0----29.93- 78.6 79.7----
2024-03-01 1336ENE 2.9 6.0----29.93- 78.6 79.7----
2024-03-01 1330ENE 5.1 6.0----29.94- 78.8 79.7----
2024-03-01 1324ENE 4.1 6.0----29.93- 78.6 79.7----
2024-03-01 1318ENE 2.9 6.0----29.93- 78.6 79.7----
2024-03-01 1306ENE 4.1 6.0----29.94- 78.8 79.5----
2024-03-01 1300ENE 5.1 6.0----29.94+0.02 78.8 79.7----
2024-03-01 1254ENE 5.1 7.0----29.94- 78.6 79.5----
2024-03-01 1248ENE 2.9 4.1----29.94- 78.6 79.5----
2024-03-01 1242ENE 4.1 7.0----29.94- 79.0 79.5----
2024-03-01 1236ENE 4.1 6.0----29.94- 79.0 79.5----
2024-03-01 1230ENE 4.1 6.0----29.94- 79.0 79.5----
2024-03-01 1224ENE 4.1 6.0----29.94- 78.8 79.5----
2024-03-01 1218ENE 5.1 7.0----29.94- 79.0 79.5----
2024-03-01 1212ENE 4.1 5.1----29.94-------
2024-03-01 1206ENE 5.1 7.0----29.94- 79.2 79.5----
2024-03-01 1200ENE 4.1 7.0----29.94+0.04 79.0 79.5----
2024-03-01 1148 NE 5.1 6.0----29.94- 79.0 79.5----
2024-03-01 1142 NE 5.1 7.0----29.94- 79.0 79.5----
2024-03-01 1136ENE 2.9 5.1----29.94- 79.0 79.5----
2024-03-01 1130ENE 4.1 5.1----29.94- 79.0 79.5----
2024-03-01 1124 NE 2.9 5.1----29.94- 78.8 79.5----
2024-03-01 1118ENE 4.1 6.0----29.94- 78.8 79.5----
2024-03-01 1112 E 2.9 6.0----29.94- 79.0 79.5----
2024-03-01 1106 E 2.9 5.1----29.93- 79.3 79.5----
2024-03-01 1100ENE 2.9 5.1----29.93- 79.3 79.7----
2024-03-01 1054 E 2.9 5.1----29.93- 79.3 79.5----
2024-03-01 1048ENE 2.9 5.1----29.93- 79.3 79.5----
2024-03-01 1042ENE 4.1 6.0----29.93- 79.5 79.5----
2024-03-01 1036ENE 4.1 6.0----29.93- 79.5 79.7----
2024-03-01 1030ENE 5.1 8.0----29.93- 79.7 79.7----
2024-03-01 1024ENE 4.1 7.0----29.93- 79.5 79.7----
2024-03-01 1018ENE 5.1 8.0----29.92- 79.5 79.7----
2024-03-01 1012ENE 5.1 7.0----29.92- 79.3 79.7----
2024-03-01 1006ENE 5.1 6.0----29.92- 79.5 79.7----
2024-03-01 1000ENE 5.1 7.0----29.92- 79.7 79.7----
2024-03-01 0948ENE 5.1 8.0----29.91- 79.9 79.7----
2024-03-01 0942 NE 5.1 8.0----29.91- 79.7 79.7----
2024-03-01 0936ENE 4.1 7.0----29.91- 79.7 79.7----
2024-03-01 0930ENE 4.1 6.0----29.91- 79.5 79.7----
2024-03-01 0924ENE 4.1 7.0----29.90- 79.5 79.7----
2024-03-01 0918ENE 5.1 8.0----29.90- 79.9 79.7----
2024-03-01 0912ENE 4.1 8.9----29.90- 79.9 79.7----
2024-03-01 0906ENE 5.1 7.0----29.90- 79.9 79.7----
2024-03-01 0900ENE 5.1 9.9----29.90+0.02------
2024-03-01 0848 E 5.1 8.9----29.89- 79.9 79.7----
2024-03-01 0842 E 5.1 11.1----29.89- 80.1 79.7----
2024-03-01 0836-------29.89- 80.2 79.7----
2024-03-01 0830ENE 8.0 12.0----29.88- 80.4 79.7----
2024-03-01 0818ENE 8.0 12.0----29.88- 80.4 79.7----
2024-03-01 0812-------29.88- 80.8 79.9----
2024-03-01 0800 E 8.0 12.0------------
2024-03-01 0748 E 8.9 14.0----29.88- 81.3 79.9----
2024-03-01 0742-------29.88- 81.7 79.9----
2024-03-01 0736 E 9.9 14.0------------
2024-03-01 0730 E 8.9 12.0------------
2024-03-01 0718 E 8.0 11.1----29.87- 82.2 79.9----
2024-03-01 0712-------29.87- 82.2 79.9----
2024-03-01 0700ENE 8.0 14.0------------
2024-03-01 0654 NE 8.0 13.0----29.87- 82.2 79.9----
2024-03-01 0648ENE 8.0 14.0----29.87- 82.0 79.9----
2024-03-01 0642 E 11.1 17.1----29.87- 82.4 79.9----
2024-03-01 0636 E 8.9 13.0----29.87- 82.8 79.9----
2024-03-01 0630-------29.87-------
2024-03-01 0624 E 9.9 13.0----29.87-- 79.9----
2024-03-01 0618 E 12.0 15.0----29.87- 82.6 79.9----
2024-03-01 0606 E 12.0 17.1----29.87- 83.1 79.9----
2024-03-01 0600 E 11.1 19.0----29.87-0.03 84.2 79.9----
2024-03-01 0554 E 9.9 14.0----29.87- 83.1 79.9----
2024-03-01 0548-------29.87- 83.7 79.9----
2024-03-01 0536ENE 8.0 14.0----29.87- 83.5 79.9----
2024-03-01 0530 E 8.9 15.0----29.87- 83.7 79.9----
2024-03-01 0524ENE 8.9 14.0------------
2024-03-01 0518 E 11.1 17.1----29.87- 84.6 79.9----
2024-03-01 0512 E 8.9 15.9----29.87- 83.8 79.9----
2024-03-01 0506 E 9.9 14.0----29.87- 83.3 79.9----
2024-03-01 0500ENE 11.1 15.9----29.87-0.05 83.3 79.9----
2024-03-01 0454 E 11.1 15.0----29.87- 82.8 79.9----
2024-03-01 0448 E 11.1 15.0----29.87- 82.6 79.9----
2024-03-01 0442 E 8.0 15.0----29.88- 83.7 79.9----
2024-03-01 0436 E 8.9 17.1----29.88- 82.8 79.9----
2024-03-01 0430 E 9.9 15.0----29.88- 82.9 79.9----
2024-03-01 0424ENE 8.9 14.0----29.88- 83.5 79.9----
2024-03-01 0418-------29.88- 82.6 79.9----
2024-03-01 0412ENE 6.0 13.0----29.88- 82.6 79.9----
2024-03-01 0406 NE 9.9 12.0----29.88- 82.8 79.9----
2024-03-01 0400-------29.89-0.06 82.9 79.9----
2024-03-01 0354 E 9.9 15.9----29.89- 83.5 79.9----
2024-03-01 0348 E 11.1 15.0----29.89- 84.4 79.9----
2024-03-01 0342 E 8.9 15.9----29.89- 84.0 79.9----
2024-03-01 0336 E 9.9 15.0----29.89- 82.6 79.9----
2024-03-01 0330 E 9.9 18.1----29.89- 83.8 79.9----
2024-03-01 0324ENE 12.0 15.9----29.90- 83.5 79.9----
2024-03-01 0318-------29.90- 82.8 79.9----
2024-03-01 0312 E 11.1 18.1----29.90- 84.2 79.9----
2024-03-01 0306 E 14.0 18.1----29.90- 82.4 79.9----
2024-03-01 0300 E 11.1 15.0----29.90-0.06 82.9 79.9----
2024-03-01 0254ENE 8.9 17.1----29.90- 82.6 79.9----
2024-03-01 0248ENE 9.9 15.0----29.91- 82.6 79.9----
2024-03-01 0242 E 9.9 15.9----29.91- 82.2 79.9----
2024-03-01 0236 E 14.0 17.1----29.91- 84.2 79.9----
2024-03-01 0230 E 8.9 15.0----29.91- 82.6 79.9----
2024-03-01 0224 E 9.9 15.9----29.91- 83.5 79.9----
2024-03-01 0218ENE 9.9 13.0----29.91- 82.4 79.7----
2024-03-01 0212 E 11.1 15.9----29.91- 83.3 79.7----
2024-03-01 0206 E 8.9 15.9----29.91- 83.1 79.7----
2024-03-01 0200ENE 8.0 15.9----29.92-0.04 82.4 79.7----
2024-03-01 0154ENE 8.9 15.0----29.92- 82.4 79.7----
2024-03-01 0148-------29.92- 82.2 79.7----
2024-03-01 0142 E 9.9 15.9----29.93- 82.6 79.7----
2024-03-01 0136ENE 11.1 15.9----29.93- 82.4 79.7----
2024-03-01 0130 E 11.1 18.1----29.93- 83.8 79.7----
2024-03-01 0124 E 13.0 21.0----29.93- 84.0 79.5----
2024-03-01 0118 E 11.1 18.1----29.94- 82.4 79.5----
2024-03-01 0112 E 11.1 15.9----29.94- 82.0 79.5----
2024-03-01 0106ENE 9.9 14.0----29.94- 82.2 79.5----
2024-03-01 0100ENE 11.1 17.1----29.95+0.00 82.2 79.5----
2024-03-01 0054 NE 9.9 13.0----29.95- 82.0 79.5----
2024-03-01 0048-------29.95- 81.5 79.5----
2024-03-01 0042ENE 12.0 15.9----29.95- 81.1 79.5----
2024-03-01 0036ENE 8.0 15.0----29.96- 81.3 79.5----
2024-03-01 0030ENE 11.1 15.9----29.96- 81.5 79.5----
2024-03-01 0024ENE 9.9 17.1----29.96- 82.2 79.5----
2024-03-01 0018 NE 8.9 15.0----29.96- 81.9 79.5----
2024-03-01 0012ENE 11.1 15.9----29.96- 81.9 79.5----
2024-03-01 0006ENE 12.0 15.9----29.96- 81.3 79.5----
2024-03-01 0000-------29.96+0.03 82.0 79.5----
2024-02-29 2354ENE 12.0 15.9----29.96- 81.9 79.5----
2024-02-29 2348-------29.96-------
2024-02-29 2342ENE 8.9 15.0----29.96- 81.1 79.5----
2024-02-29 2336ENE 8.0 17.1----29.96- 81.0 79.3----
2024-02-29 2248ENE 8.0 11.1----29.96- 80.1 79.3----
2024-02-29 2242ENE 8.0 11.1----29.96- 79.9 79.3----
2024-02-29 2236ENE 8.0 11.1----29.96- 79.7 79.3----
2024-02-29 2230 E 6.0 9.9----29.96- 79.3 79.3----
2024-02-29 2224ENE 7.0 11.1----29.95- 79.3 79.3----
2024-02-29 2218ENE 5.1 11.1----29.95- 79.2 79.3----
2024-02-29 2212ENE 7.0 9.9----29.95- 79.2 79.3----
2024-02-29 2206ENE 5.1 9.9----29.95- 79.2 79.3----
2024-02-29 2200ENE 7.0 12.0----29.95+0.04 79.2 79.3----
2024-02-29 2154 E 7.0 9.9----29.95- 79.2 79.3----
2024-02-29 2148ENE 7.0 8.9----29.94- 78.8 79.3----
2024-02-29 2142ENE 6.0 9.9----29.94- 78.6 79.3----
2024-02-29 2136ENE 6.0 8.9----29.94- 78.6 79.3----
2024-02-29 2130ENE 6.0 8.9----29.94- 78.4 79.3----
2024-02-29 2124ENE 5.1 8.9----29.94- 78.4 79.3----
2024-02-29 2118ENE 8.0 9.9------------
2024-02-29 2112ENE 7.0 11.1----29.93- 78.3 79.3----
2024-02-29 2106ENE 7.0 14.0----29.93- 78.3 79.3----
2024-02-29 2100ENE 8.9 14.0----29.93+0.03 78.3 79.3----
2024-02-29 2054ENE 6.0 12.0----29.93- 78.1 79.3----
2024-02-29 2048ENE 6.0 9.9----29.93- 78.3 79.3----
2024-02-29 2042ENE 8.0 12.0----29.93- 78.3 79.3----
2024-02-29 2036ENE 8.0 12.0----29.92- 77.9 79.3----
2024-02-29 2030 E 8.0 13.0----29.92- 77.9 79.3----
2024-02-29 2024 E 9.9 15.0----29.92- 77.7 79.3----
2024-02-29 2018ENE 8.0 11.1----29.92- 77.7 79.3----
2024-02-29 2012 E 6.0 8.0----29.91- 77.7 79.3----
2024-02-29 2006ENE 5.1 8.9----29.91- 77.5 79.3----
2024-02-29 2000ENE 5.1 6.0----29.91+0.00 77.5 79.3----
2024-02-29 1954 E 5.1 8.0----29.91- 77.2 79.3----
2024-02-29 1948ENE 6.0 8.0----29.91- 77.5 79.3----
2024-02-29 1942ENE 6.0 8.9----29.91- 77.5 79.3----
2024-02-29 1936ENE 6.0 8.9----29.91- 77.5 79.3----
2024-02-29 1930ENE 5.1 8.0----29.91- 77.4 79.5----
2024-02-29 1924ENE 5.1 7.0----29.91- 77.4 79.5----
2024-02-29 1918ENE 5.1 8.0----29.91- 77.4 79.5----
2024-02-29 1912ENE 5.1 7.0----29.91- 77.0 79.5----
2024-02-29 1906ENE 5.1 7.0----29.91- 77.0 79.5----
2024-02-29 1900ENE 5.1 7.0----29.91-0.03 77.0 79.5----
2024-02-29 1854ENE 5.1 8.0----29.91- 77.4 79.5----
2024-02-29 1848ENE 5.1 8.0----29.91- 77.2 79.5----
2024-02-29 1842ENE 5.1 8.0----29.91- 77.2 79.5----
2024-02-29 1836 E 5.1 8.0----29.91- 77.4 79.5----
2024-02-29 1830-------29.91- 77.7 79.5----
2024-02-29 1824ENE 6.0 8.0----29.91- 77.9 79.5----
2024-02-29 1818ENE 6.0 9.9----29.91- 77.9 79.5----
2024-02-29 1812ENE 7.0 9.9----29.91- 77.9 79.5----
2024-02-29 1806ENE 7.0 11.1----29.91- 78.1 79.5----
2024-02-29 1800ENE 7.0 14.0----29.91-0.05 78.3 79.5----
2024-02-29 1754ENE 8.0 13.0----29.91- 78.3 79.5----